GFSMA_con_lsi_021.txt.gz
Lid_Strength_Index
2 1 1 1 1 1 0 1 1 0 0 1 1 0 0 1 -0 0 0 -1 -1 -1 -2 -2 -2 -2 -1 -1 -1 -2 -2 -2 -2 -2 -2 -2 -2 -2 -1 -2 -2 -1 -1
1 1 1 1 1 1 1 0 0 0 0 2 1 0 0 0 0 0 -0 -0 -1 -1 -1 -2 -2 -1 -2 -1 -1 -2 -2 -1 -1 -1 -1 -2 -1 -1 -2 -2 -1 -1 -1
1 1 1 1 1 1 0 1 1 0 0 1 1 0 0 0 0 0 -0 -0 -0 -1 -1 -2 -2 -2 -2 -1 -1 -2 -1 -2 -1 -1 -1 -1 -1 -2 -2 -1 -1 -1 -1
1 1 1 1 0 1 1 1 1 2 1 1 1 1 1 0 0 0 -0 -0 0 -0 -1 -1 -1 -1 -2 -2 -2 -2 -1 -2 -1 -1 -1 -1 -0 -1 -1 -1 -1 -1 -1
-0 1 1 1 1 1 1 1 2 2 2 2 2 1 1 1 0 -0 0 0 -0 -0 -1 -1 -1 -1 -1 -2 -2 -2 -2 -1 -1 -0 0 0 -0 -1 -1 -1 -1 -1 0
-0 1 1 1 1 1 1 2 2 2 2 2 1 2 1 1 0 1 1 0 -0 -0 -0 -0 -1 -1 -1 -1 -2 -2 -2 -1 -0 0 0 0 -1 -1 -1 -1 -1 0 1
0 1 1 1 1 1 1 1 2 2 3 2 2 2 2 1 1 1 1 1 1 0 1 -0 -0 -0 -0 -1 -1 -2 -2 -1 -1 0 0 -1 -1 -1 -1 -1 -0 0 1
0 1 2 1 1 1 2 2 2 2 2 2 3 3 5 4 2 1 1 1 1 1 -0 -0 0 0 0 -0 -0 -1 -2 -1 -1 -0 0 -1 -1 -0 -1 -0 0 1 1
1 0 1 1 1 1 2 2 2 2 4 3 1 4 6 7 4 2 1 1 1 1 0 1 0 0 0 0 -1 -1 -1 -1 -1 -1 -0 -0 -0 -0 0 0 1 1 1
1 1 1 1 1 1 1 1 1 2 2 3 3 2 2 3 6 6 2 2 1 1 1 0 1 1 1 0 -1 -1 -1 -1 -1 -1 -1 -0 -0 -0 0 0 1 1 0
1 1 1 1 1 2 2 1 2 2 2 3 3 3 3 3 3 4 6 4 2 1 1 0 1 1 1 0 -0 -1 -0 -1 -1 -1 -1 -1 -0 0 0 0 0 0 -0
2 1 1 1 1 1 1 1 1 2 2 2 2 2 3 4 4 4 5 4 4 2 1 1 1 1 1 0 -0 -0 0 1 1 1 0 -0 -0 -0 0 0 -0 -1 -1
3 2 2 1 1 1 1 1 1 2 2 2 3 3 2 3 3 2 3 4 4 3 2 1 1 1 0 0 0 0 0 2 2 2 1 1 0 -0 -1 -1 -2 -2 -2
2 2 2 1 1 1 0 1 1 2 2 3 3 3 2 2 2 2 3 4 5 4 3 3 1 1 1 0 0 0 1 2 2 3 2 2 1 0 -1 -2 -2 -2 -2
1 1 1 1 1 1 1 1 2 2 2 2 2 3 3 2 2 3 2 2 4 6 5 3 2 1 0 -0 0 1 1 2 2 2 2 1 0 -0 -1 -1 -1 -1 -1
2 1 2 2 1 1 1 1 1 1 1 1 1 2 3 2 2 2 2 2 2 3 5 3 2 1 1 0 -0 1 1 1 2 2 1 1 1 1 0 0 0 -0 -0
2 1 1 1 1 1 1 2 1 1 2 2 2 2 2 2 3 2 2 2 3 2 4 3 2 1 1 1 -0 -0 0 2 2 2 0 1 1 1 1 1 1 1 1
1 1 1 1 1 1 2 1 1 1 1 2 2 2 2 2 3 2 2 3 3 3 3 4 3 2 2 1 0 1 1 1 1 0 1 1 2 2 2 2 2 2 2
1 1 1 1 1 1 1 2 1 1 1 2 2 2 2 2 2 2 3 4 3 2 3 3 4 4 3 2 3 3 4 5 2 0 1 2 2 2 3 3 3 3 4
1 1 1 1 1 1 1 1 1 1 1 1 1 1 1 1 2 3 2 3 3 3 3 4 4 5 4 4 4 4 3 1 1 1 2 4 3 3 3 3 3 3 5
1 2 1 1 1 1 1 1 1 1 1 1 1 1 1 1 2 2 2 3 3 3 3 4 5 4 5 4 4 3 3 2 3 4 6 6 5 5 5 4 4 4 5
2 3 3 3 3 1 6 5 2 1 1 2 2 1 2 2 3 3 4 5 3 3 4 4 4 4 3 3 3 2 3 5 5 2 4 5 6 7 6 7 5 6 6
2 2 2 4 6 6 7 6 5 1 1 2 2 2 1 0 2 2 7 6 6 4 3 2 3 3 4 3 3 4 4 4 4 3 4 5 6 6 6 5 6 7 7
2 3 2 4 5 7 9 8 6 2 2 2 2 2 1 2 3 3 3 2 3 4 4 1 2 4 3 3 2 2 3 4 3 3 4 4 3 3 2 3 6 6 7
2 2 2 3 5 7 9 7 3 2 3 3 2 3 3 3 6 6 2 3 4 5 8 8 9 10 11 9 6 4 5 6 7 6 6 7 7 8 7 6 7 8 8
3 1 2 2 5 6 10 10 4 2 3 4 5 5 6 4 8 6 2 3 3 4 6 6 6 8 8 8 7 6 5 7 8 9 6 8 8 8 9 7 7 7 7

GFSMA_con_lsi_024.txt.gz
Lid_Strength_Index
2 2 2 2 1 1 1 1 1 1 1 1 1 2 0 0 0 -0 0 -1 -1 -1 -1 -2 -2 -2 -1 -2 -1 -1 -1 -1 -2 -1 -1 -1 -1 -2 -2 -2 -1 -1 -2
2 2 2 1 2 2 1 1 1 1 2 1 2 2 0 0 0 0 0 -0 -1 -1 -1 -1 -2 -2 -2 -2 -1 -1 -1 -1 -1 -2 -1 -1 -1 -2 -2 -2 -2 -2 -1
2 2 2 2 1 1 1 1 1 1 1 1 2 2 0 0 0 0 0 1 -0 -1 -1 -1 -2 -2 -2 -2 -2 -1 -1 -1 -1 -1 -1 -1 -1 -2 -2 -2 -1 -1 -1
1 2 2 2 1 2 2 1 2 2 1 1 2 2 1 0 0 0 1 1 1 -0 -1 -1 -1 -1 -2 -2 -1 -1 -2 -1 -1 -1 -0 -0 -1 -1 -1 -1 -1 -1 -1
0 1 2 2 1 2 2 2 2 2 2 2 2 2 1 1 1 0 0 0 1 1 0 -1 -1 -1 -1 -1 -1 -1 -2 -2 -1 -1 -0 0 -1 -1 -1 -1 -1 -1 -0
1 1 2 2 1 2 2 2 2 2 2 2 1 2 2 1 1 0 1 -0 0 0 1 0 -0 -1 -1 -1 -1 -2 -2 -1 -1 -0 -0 -0 -0 -1 -1 -1 -1 -0 0
1 1 2 2 1 2 2 2 2 2 3 2 3 3 2 1 1 1 0 1 0 0 0 -0 -0 -0 -1 -1 -1 -1 -2 -1 -1 -0 -0 0 -1 -0 -1 -1 -1 -0 1
1 1 2 2 2 2 2 2 2 3 3 3 4 4 5 4 2 1 1 1 1 1 0 0 -0 0 -0 -0 -1 -1 -2 -1 -1 -0 0 -1 -0 -1 -1 -1 -0 0 1
1 1 2 2 2 2 2 2 3 2 4 3 2 4 6 7 4 2 2 1 1 1 1 0 0 -0 0 0 -0 -1 -1 -1 -1 -0 -1 -1 -0 -0 -0 -0 0 0 1
1 1 1 1 2 2 2 2 2 2 3 3 2 1 2 3 6 6 2 2 1 1 1 0 0 0 0 0 -0 -1 -1 -1 -1 -1 -1 -1 -0 -0 -0 0 0 1 1
2 1 1 1 2 2 2 2 2 2 3 2 2 3 3 3 3 4 6 4 2 1 1 1 0 1 1 0 -0 -1 -1 -1 -1 -1 -1 -1 -0 -0 -0 0 0 0 1
2 2 1 2 2 2 2 2 2 2 2 2 2 2 3 4 4 4 5 4 4 2 1 1 1 1 1 1 -0 -0 0 1 1 1 0 -1 -1 -0 0 0 0 0 1
3 3 2 2 1 1 1 2 2 2 2 2 3 3 3 2 2 2 3 4 4 3 2 2 1 1 1 1 -0 -0 1 2 2 2 1 1 0 -0 -0 -0 0 -0 -1
3 3 2 2 1 1 1 2 2 2 2 3 3 3 2 2 1 2 3 4 5 4 3 3 2 1 1 1 1 0 1 2 2 3 3 2 1 1 1 -0 -1 -1 -2
2 2 2 2 2 1 1 2 2 3 3 3 4 3 3 3 3 2 2 2 4 6 5 3 3 1 1 1 1 1 2 2 2 3 3 3 2 2 1 0 -1 -1 -1
2 2 2 2 2 2 2 2 2 2 1 2 3 3 3 3 3 3 3 2 2 3 5 2 2 1 1 0 -0 1 2 2 3 2 3 3 2 1 0 0 0 -0 -0
2 2 2 2 2 2 2 1 2 2 2 2 3 2 3 3 3 2 2 2 2 2 4 3 2 1 1 1 0 1 1 2 2 3 2 1 2 2 1 1 1 1 0
2 2 2 2 2 2 2 1 2 2 2 3 3 2 3 2 3 3 2 2 2 2 3 4 2 2 2 2 1 1 0 1 2 2 2 1 2 2 2 2 2 2 2
2 2 2 2 1 2 1 1 2 2 2 2 2 2 2 3 3 2 2 2 2 2 2 2 3 3 2 2 2 3 3 3 2 1 1 1 2 2 2 3 3 3 4
2 2 1 1 1 1 1 1 1 1 2 2 2 2 2 2 2 2 2 3 3 3 3 3 4 5 4 4 3 4 5 5 5 3 2 2 2 3 3 3 3 3 5
2 1 1 1 1 1 1 1 1 1 1 1 1 1 1 1 2 2 2 3 3 3 4 5 6 6 6 6 5 6 5 4 3 2 5 5 5 5 5 4 3 3 4
3 1 1 1 1 1 7 5 2 1 1 1 2 2 2 2 3 5 5 4 3 3 4 5 6 6 6 5 5 5 4 4 4 3 4 4 6 6 6 6 5 6 6
4 4 4 3 3 3 8 7 5 1 1 1 1 1 2 1 2 2 6 6 6 6 5 4 5 5 5 3 3 4 4 4 5 3 4 5 5 5 4 4 5 6 7
3 5 5 5 5 4 9 8 6 1 1 1 1 1 1 2 2 3 4 4 4 3 3 2 3 3 3 3 2 3 4 4 4 6 4 5 6 7 6 8 7 7 7
4 4 5 6 7 8 9 9 5 2 2 2 1 1 1 2 6 8 3 4 6 7 8 8 7 7 8 8 5 3 5 6 8 7 6 8 8 8 8 7 7 7 8
4 3 4 5 7 8 11 9 5 3 4 4 4 3 6 4 9 8 3 4 5 6 7 8 9 10 9 8 7 6 5 8 8 9 7 8 8 8 9 7 7 8 8

GFSMA_con_lsi_030.txt.gz
Lid_Strength_Index
2 2 2 2 1 1 1 1 1 0 -0 0 1 1 1 0 -0 -1 -1 -1 -1 -1 -1 -1 -1 -1 -1 -1 -1 -1 -1 -2 -2 -2 -1 -1 -2 -1 -1 -1 -1 -2 -2
2 2 2 2 2 1 1 2 1 0 0 0 1 1 1 0 -1 -1 -1 -1 -1 -1 -1 -1 -1 -1 -2 -2 -1 -2 -1 -2 -2 -1 -1 -1 -1 -1 -0 -0 -0 -2 -1
2 2 2 2 2 1 1 1 1 0 0 1 1 1 0 0 -0 -1 -1 -1 -1 -1 -1 -1 -1 -1 -2 -2 -2 -2 -1 -2 -1 -1 -1 -1 -1 -0 0 0 0 -1 -1
1 2 2 2 1 1 1 1 1 1 1 1 1 1 0 0 -0 -0 -1 -1 -1 -1 -1 -1 -1 -1 -1 -2 -2 -2 -2 -1 -1 -1 -1 -1 -1 -0 -0 0 0 -1 -1
0 2 2 1 1 1 1 2 2 1 1 1 1 1 1 0 0 -0 -0 -0 -1 -1 -1 -1 -1 -1 -1 -2 -2 -2 -2 -1 -1 -1 -1 -1 -1 -0 -0 0 1 0 -1
0 1 1 1 1 1 2 2 1 1 1 1 1 1 1 0 0 0 0 -0 -1 -0 -0 -0 -1 -1 -1 -2 -2 -2 -2 -1 -1 -1 -1 -1 -0 0 0 1 1 1 1
1 1 1 1 1 2 2 1 1 1 2 1 2 2 2 1 1 0 -0 -0 0 1 0 -1 -1 -0 -1 -1 -1 -2 -2 -2 -1 -1 -1 -0 -0 0 0 1 0 0 0
1 1 2 1 2 2 1 1 1 2 2 1 3 3 5 3 2 1 0 0 1 0 -0 -0 -1 -1 -1 -1 -1 -1 -2 -2 -2 -1 -1 -1 -0 0 0 -0 -0 0 1
1 1 1 2 2 2 2 1 1 1 3 2 1 3 6 6 4 2 1 1 1 1 0 -0 -0 -0 -0 -0 -1 -1 -1 -1 -1 -1 -1 -0 -0 -0 -0 -1 -0 0 0
1 1 1 1 2 2 2 1 1 1 1 3 2 1 1 2 5 6 2 2 1 1 1 1 0 0 1 -0 -1 -1 -1 -1 -1 -0 -0 -0 -1 -1 -1 -1 -0 0 -0
1 1 1 1 1 2 2 1 1 1 1 2 2 2 2 2 2 4 6 4 2 1 1 0 1 0 0 -0 -0 -0 0 0 0 -0 -0 -1 -1 -1 -1 -0 -0 0 0
2 1 1 1 1 2 1 1 1 1 1 1 1 1 3 4 4 4 5 4 4 2 1 0 0 0 0 -0 -1 -0 1 1 1 1 0 -1 -1 -1 -1 -0 -0 0 0
2 2 1 2 2 2 1 1 1 1 1 1 1 2 2 2 2 2 3 4 4 3 2 1 0 0 0 0 -0 0 0 2 2 2 2 1 -0 -1 -1 -1 -0 0 1
2 2 1 1 1 1 1 1 1 1 1 1 1 1 1 1 1 1 3 4 5 4 3 3 1 -0 0 0 -0 0 1 2 3 3 3 2 1 0 0 0 0 0 0
1 2 1 1 1 1 1 1 1 1 1 2 1 1 1 1 1 1 2 2 4 6 5 3 3 1 0 0 0 1 1 2 2 3 3 3 2 2 2 2 1 1 1
2 2 2 1 1 1 1 1 1 1 2 2 1 2 2 2 1 1 2 2 1 3 5 2 2 1 0 0 0 1 1 2 3 3 3 4 3 3 3 3 2 1 -1
2 2 2 2 2 2 1 1 1 1 2 2 2 2 2 2 2 1 1 1 1 2 4 3 2 1 1 1 1 1 1 2 2 3 3 3 4 4 3 2 1 1 0
1 2 2 2 2 2 1 1 1 1 1 2 2 2 2 2 2 1 1 1 1 1 3 4 2 2 2 1 1 2 1 1 1 2 3 4 4 4 2 2 2 2 3
1 1 1 2 1 2 1 1 2 2 2 2 2 2 2 2 2 1 1 1 1 1 2 3 3 2 2 1 1 1 2 1 1 2 4 3 3 2 2 3 3 4 5
1 1 1 1 1 1 2 2 2 2 1 2 2 1 2 2 2 1 1 1 1 2 2 2 3 3 2 2 2 3 4 4 2 2 2 2 2 2 3 4 4 4 5
1 1 1 1 1 1 2 2 2 2 2 1 1 1 1 2 3 2 1 1 1 3 3 3 4 3 3 3 3 3 4 4 3 1 1 2 2 3 4 5 4 4 5
1 1 1 1 1 1 7 5 3 1 1 1 2 2 2 3 4 5 5 5 3 3 4 4 5 4 4 3 3 3 4 3 3 1 2 4 4 5 4 3 5 6 7
2 1 1 1 2 3 8 8 5 1 2 1 1 1 1 2 2 2 6 6 6 6 5 3 4 4 4 3 3 4 4 2 2 3 2 5 4 5 4 5 7 7 7
3 2 2 2 3 5 9 8 6 1 1 1 1 1 2 2 3 3 3 4 4 3 3 3 2 3 2 2 1 1 1 2 4 5 3 5 5 6 5 5 7 7 8
4 4 3 2 4 5 10 9 4 1 1 1 1 1 2 2 8 8 4 4 5 6 9 9 8 9 8 6 3 1 2 2 4 5 4 5 5 5 4 5 6 8 9
4 3 5 4 5 5 10 9 4 1 2 2 2 2 6 3 9 9 4 4 5 5 5 5 4 5 6 7 6 1 2 3 6 5 4 4 5 4 6 6 7 8 8

GFSMA_con_lsi_033.txt.gz
Lid_Strength_Index
-0 -1 -1 -1 -1 -1 -1 -1 -1 -1 -1 -1 -1 -1 -1 -1 -1 -1 -1 -1 -1 -1 -1 -1 -1 -1 -1 -1 -1 -1 -1 -1 -1 -1 -1 -1 -1 -2 -2 -1 -1 -1 -1
-1 -0 -0 -0 -0 -1 -1 -1 -0 -0 -0 -1 -1 -1 -1 -1 -1 -1 -1 -2 -1 -1 -1 -1 -1 -1 -1 -1 -1 -1 -1 -1 -1 -0 -0 -1 -1 -2 -1 -1 -0 -0 -1
-1 -1 -0 -0 -0 -1 -1 -1 -1 -1 -0 -0 -0 -1 -1 -1 -1 -1 -1 -1 -2 -1 -1 -1 -1 -1 -1 -1 -2 -2 -1 -1 -1 -1 -1 -1 -1 -1 -1 -0 0 1 0
-1 -1 -0 -0 -1 -1 -1 -0 -0 0 0 0 0 -0 -0 -1 -1 -1 -1 -1 -1 -1 -1 -1 -1 -1 -1 -1 -2 -2 -1 -1 -1 -1 -1 -1 -1 -1 -0 -0 0 1 0
-1 -1 -0 -0 -1 -0 -0 -0 0 0 1 1 0 -0 -0 -0 -1 -1 -1 -1 -1 -1 -1 -1 -1 -1 -1 -1 -2 -2 -2 -1 -1 -1 -1 -1 -1 -1 -0 -0 1 1 1
-1 -1 -1 -1 -1 -0 0 0 0 0 0 0 1 1 -0 -1 -1 -1 -1 -1 -1 -1 -1 -1 -2 -2 -1 -1 -1 -2 -2 -2 -1 -1 -1 -1 -1 -1 -0 1 1 1 1
-1 -1 -0 -0 -1 0 0 -0 0 1 1 0 1 1 1 -0 -0 -0 -1 -1 -0 -1 -1 -2 -2 -2 -2 -1 -1 -2 -2 -2 -1 -1 -1 -1 -1 -0 0 1 1 1 1
-1 -1 -0 -0 -0 0 0 0 0 1 1 0 2 2 4 2 1 0 -0 -0 -0 -0 -0 -1 -1 -2 -2 -1 -1 -1 -2 -2 -2 -1 -1 -1 -0 -0 0 0 1 1 1
-1 -1 -0 -0 -0 0 1 0 0 1 2 1 0 2 4 5 3 1 1 0 0 0 -0 -1 -1 -1 -1 -2 -1 -1 -1 -1 -2 -1 -1 -0 -0 0 0 0 0 0 0
-0 -1 -0 -0 -0 -0 0 0 -0 0 1 3 1 0 0 1 4 5 2 1 0 0 -0 -0 -0 -1 -1 -1 -1 -1 -1 -1 -1 -1 -1 -0 -0 0 -0 -0 -0 -0 0
-0 -0 -1 -0 -0 -0 -0 -0 0 0 0 1 1 1 1 1 1 3 5 4 2 1 0 0 -0 -0 -1 -0 -1 -0 -0 -0 0 -0 -0 -0 -0 -0 -0 -0 -0 -0 0
-0 -0 -0 -0 -1 -0 -0 -0 -0 -0 0 0 1 1 2 2 3 3 4 4 4 2 1 0 0 -0 -0 -0 -1 -0 0 1 1 1 0 -0 -1 -1 -0 -1 -0 -0 -0
1 0 -0 -0 -0 -0 -0 -0 -0 0 0 0 0 1 1 1 1 1 3 4 4 3 2 1 0 -0 -0 -0 -0 0 1 2 2 2 2 1 0 -0 -1 -1 -1 -0 0
0 -0 -0 -0 -0 -0 -1 -0 0 0 -0 0 0 0 1 1 1 1 2 4 5 4 3 2 0 0 0 0 1 1 1 2 3 3 3 2 2 0 -0 -0 -0 0 0
-0 -0 -0 -0 -0 -0 -0 -0 0 0 0 1 0 1 1 1 0 0 1 2 4 6 5 3 3 1 1 1 1 1 1 2 2 3 3 3 2 2 1 1 1 1 1
-0 0 -0 -0 -0 -0 -0 -0 0 -0 0 0 0 0 1 0 0 0 1 1 2 3 5 2 2 1 1 1 0 1 1 2 3 3 3 3 3 3 3 2 2 2 0
0 0 0 0 0 0 -0 0 0 0 1 1 0 1 1 0 1 1 0 0 1 2 4 3 1 1 2 2 1 1 1 1 2 3 3 3 4 4 3 3 2 0 -0
0 0 0 0 0 0 0 0 1 1 1 1 1 1 1 1 1 1 1 1 1 1 2 4 2 2 2 2 2 2 1 1 1 2 3 4 4 4 4 2 1 2 2
0 0 0 1 0 0 0 0 0 1 1 1 1 1 1 1 1 1 1 1 1 1 1 2 3 2 2 2 2 2 1 2 1 2 3 4 4 3 2 2 3 3 4
0 0 0 0 0 0 0 0 1 1 1 1 0 1 0 1 1 1 1 1 1 2 2 2 3 3 3 2 2 3 3 2 2 2 4 4 3 3 3 3 4 5 7
0 0 1 1 0 0 1 1 1 1 1 1 1 0 0 0 2 1 1 1 1 2 2 3 3 3 3 3 3 2 4 4 2 1 1 -0 0 2 3 5 4 5 6
1 1 1 1 1 1 7 6 2 1 1 1 1 1 0 2 4 6 5 4 2 2 3 3 3 3 3 3 3 3 3 3 4 0 0 3 2 3 2 3 5 6 7
1 1 1 1 1 2 8 7 5 0 1 1 1 1 1 2 1 1 5 6 6 6 5 2 3 3 2 1 1 2 2 2 2 0 2 3 2 4 4 6 7 7 7
1 1 2 2 1 3 9 8 5 0 1 1 1 1 1 2 2 2 1 3 3 3 3 2 1 1 0 0 -0 0 0 0 -0 1 0 4 3 4 5 5 7 8 8
1 1 1 3 3 5 10 8 3 1 1 1 1 1 1 3 9 7 2 4 3 4 9 10 9 9 8 7 3 1 1 2 2 2 1 3 3 4 3 4 6 9 10
1 1 1 1 4 4 10 8 3 1 1 2 1 2 6 4 10 8 2 2 2 3 4 1 -0 4 3 4 4 -1 -0 2 2 3 1 2 3 3 4 4 5 5 6